Zurück zum Katalog

ARIANE 2 DEB

AktivGTO
NORAD 42482·DEBRIS·🇫🇷 France

Gestartet Jan 27, 1989 von Guiana Space Centre

Loading…

TLE

AlterndSource: Space-Track

Epoche: Sep 14, 2026, 02:22 UTC

1 42482U 89006CJ  26257.09911136  .00001469  00000-0  10354-1 0  9999
2 42482  10.3421  29.8639 7104311 123.2585 324.9446  2.37005367 47043

Verfolge ARIANE 2 DEB in Echtzeit mit AllMySat

Download on the App Store